Wetbulb
52.02 52.19 52.32 51.75 51.23 50.11 46.51 43.68 42.10 50.74 50.56 43.78 42.30 42.56 44.51 44.88 46.97 48.08 47.14 47.40 46.15 44.62 45.24 46.15 46.21 46.92 49.59 51.60 51.96 48.37 49.39 48.96 46.59 47.18 49.74 50.54 50.87 50.60 51.35 46.37 45.93 47.17 47.23 46.73
52.08 52.33 52.30 51.61 50.99 50.23 44.82 41.30 42.92 52.01 48.81 41.22 42.25 43.72 44.05 45.71 45.60 46.27 45.59 45.85 47.51 47.90 46.72 45.41 46.46 47.60 50.55 51.55 53.71 52.03 49.95 47.77 45.13 46.49 48.01 50.03 50.09 49.44 50.04 50.11 50.54 48.35 46.34 48.06
51.85 51.87 52.21 51.56 51.29 50.47 45.84 43.04 45.86 48.25 47.59 44.48 43.29 43.47 44.43 44.31 47.24 46.03 46.29 45.64 47.82 46.94 46.66 47.75 46.55 47.44 49.93 51.32 52.46 55.34 54.98 47.66 48.04 44.30 46.94 49.29 49.67 49.16 49.35 51.32 49.10 49.09 49.15 51.49
51.66 51.56 52.17 51.80 51.39 49.84 46.84 44.15 44.71 46.97 44.03 44.89 45.11 45.40 45.08 44.16 43.98 47.27 47.22 45.86 45.47 46.45 46.00 45.93 46.10 49.48 50.30 50.37 54.69 54.20 52.92 49.70 48.83 48.88 48.18 49.12 49.67 50.59 49.93 49.99 51.35 49.97 51.85 51.64
51.77 51.45 52.10 51.74 51.05 48.24 46.87 43.73 45.89 47.95 45.74 46.88 45.80 44.22 45.46 44.39 46.33 46.72 46.36 45.23 46.83 46.71 46.92 48.34 46.85 50.04 50.32 49.65 52.16 52.40 52.71 51.67 51.02 49.51 49.84 50.73 48.80 49.97 50.42 50.41 49.92 51.28 52.70 52.60
51.66 51.28 51.64 51.49 50.28 45.50 41.30 44.58 48.52 46.40 45.26 46.05 44.82 45.71 45.69 45.92 47.30 49.34 48.96 47.87 47.67 45.38 48.02 49.94 52.50 52.97 53.05 52.24 51.52 51.28 52.06 51.68 50.94 46.39 50.44 49.48 47.10 48.76 49.73 52.25 53.83 53.65 51.93 54.91
51.45 51.20 51.51 51.19 50.40 47.96 45.65 42.82 45.05 44.48 44.39 45.38 46.46 46.70 46.35 45.78 47.92 47.05 49.87 51.32 51.07 52.25 54.78 53.53 52.53 51.56 51.42 51.59 51.18 50.96 50.23 51.55 51.40 48.32 49.13 42.17 48.97 57.87 56.54 55.28 54.86 56.14 56.48 57.39
51.39 50.76 51.20 50.90 50.80 48.29 47.71 45.75 42.54 44.29 42.16 44.79 46.33 46.13 46.84 47.53 48.87 48.04 50.40 52.05 52.90 53.74 52.82 49.65 47.82 47.36 48.03 48.50 48.65 49.62 49.91 50.27 47.54 46.01 46.20 47.41 52.09 55.15 55.04 54.67 52.70 55.96 56.33 57.84
51.81 51.45 51.52 50.78 50.92 49.82 47.27 44.83 44.28 45.03 41.89 43.45 46.11 45.40 45.19 45.64 46.27 49.58 50.63 52.39 53.78 52.72 50.34 48.33 43.53 42.18 44.57 44.80 46.21 49.23 49.61 50.81 48.03 46.63 43.41 41.36 51.22 54.80 56.36 57.21 51.52 56.27 57.03 57.80
52.12 51.98 51.73 51.05 50.59 49.80 48.45 45.80 44.86 45.34 42.05 45.54 46.82 45.05 43.58 46.38 46.80 46.01 46.71 47.64 51.71 52.59 47.99 45.02 43.69 43.31 46.10 43.49 43.56 46.49 47.29 47.74 45.27 45.02 43.71 46.80 54.07 55.07 56.86 49.64 50.48 56.91 57.97 58.55
52.08 52.10 51.83 51.20 50.06 50.18 47.54 44.36 45.57 45.71 43.65 45.43 46.53 47.55 45.21 46.20 46.56 44.79 48.37 49.86 51.74 52.25 48.98 46.72 46.23 45.71 48.56 48.01 48.72 48.78 48.27 47.60 46.32 44.78 43.46 41.48 55.34 54.19 52.12 54.55 56.77 56.60 58.18 58.59
52.48 52.35 51.96 51.31 49.95 49.57 45.75 41.53 46.07 46.85 44.14 46.78 47.65 49.90 50.99 50.06 49.00 46.07 48.46 49.62 49.49 51.58 50.81 49.71 50.32 49.61 50.23 48.61 46.38 51.16 48.68 51.41 51.01 51.14 49.66 54.64 56.88 54.74 55.83 56.02 55.01 56.12 56.77 58.31
52.25 52.12 51.98 51.58 50.33 49.66 47.59 43.74 44.21 46.16 45.00 46.85 46.96 47.18 48.89 50.57 50.42 50.94 47.24 49.83 51.67 52.09 51.95 52.02 51.81 48.90 51.50 47.90 47.99 49.85 52.57 53.35 52.23 50.31 53.24 54.69 55.92 56.91 56.87 56.76 56.08 57.73 58.66 58.26
52.15 52.19 51.98 51.56 50.85 50.17 48.25 43.32 43.90 43.27 46.02 42.28 46.24 51.94 51.19 52.72 49.65 50.68 51.25 52.50 51.69 52.66 52.55 51.07 49.82 49.59 52.11 50.38 50.13 50.27 52.24 52.61 51.92 49.64 52.40 53.95 55.68 56.89 57.09 56.62 57.82 57.77 58.71 58.98
52.22 52.01 52.10 51.82 51.16 50.22 48.62 46.05 45.57 44.76 45.68 42.60 44.71 49.14 51.05 51.46 50.39 52.12 52.33 52.67 52.65 52.06 50.45 50.51 49.34 50.82 51.40 51.98 52.05 50.56 53.75 51.19 48.96 47.13 52.43 54.75 54.37 56.30 57.55 56.54 56.46 57.93 58.63 58.85
52.46 52.26 52.03 51.48 50.44 47.25 41.95 43.30 45.31 44.34 46.54 44.57 41.98 48.63 49.89 51.12 51.76 51.54 51.31 52.16 51.54 52.12 51.16 49.91 50.36 50.62 50.99 49.23 48.61 53.31 54.69 55.08 53.96 53.46 56.10 56.61 58.00 58.39 58.05 57.32 57.84 58.28 59.47 59.64
52.12 51.70 51.20 50.62 49.62 47.16 40.49 42.79 46.24 45.42 47.58 44.52 41.34 45.54 49.52 49.39 49.90 49.74 50.02 49.78 49.69 50.11 48.82 49.32 51.44 51.44 51.34 49.78 47.20 53.92 55.29 55.98 56.49 56.72 56.84 55.03 55.92 55.56 57.04 57.36 57.72 57.51 60.26 60.22
51.53 50.90 50.35 49.85 49.54 47.73 43.55 45.60 47.70 46.62 43.06 46.66 43.19 44.24 46.97 49.72 48.70 48.25 48.64 49.34 49.75 48.70 48.14 48.18 50.34 50.25 50.44 46.92 48.45 51.01 54.50 55.57 55.86 56.86 58.46 58.06 58.39 57.89 57.62 58.32 58.50 58.62 58.53 59.26
50.92 50.41 49.81 47.06 44.07 39.92 41.93 49.87 50.16 46.15 45.81 44.18 43.92 42.38 43.92 49.93 48.12 49.54 50.14 49.39 46.94 48.49 48.15 47.66 48.45 48.13 45.77 47.62 50.24 51.65 52.41 53.57 55.08 55.78 54.60 55.69 55.98 56.58 57.10 58.45 58.28 57.50 58.45 58.51
49.95 45.09 41.52 38.29 42.07 47.64 49.54 46.32 44.23 43.37 45.53 45.57 43.10 46.50 45.68 48.77 48.34 48.58 49.62 49.55 47.70 45.38 47.51 48.74 46.72 46.38 49.76 51.65 52.82 53.08 52.50 52.98 53.26 53.24 54.44 56.26 56.48 57.15 57.22 57.30 57.86 57.92 58.43 58.08
43.47 39.19 39.30 47.12 50.99 47.15 43.76 40.51 39.54 40.24 39.64 42.80 44.99 45.56 45.79 48.03 47.51 47.51 48.68 47.36 46.53 43.79 45.90 46.47 45.31 45.81 49.82 52.34 53.50 54.58 54.28 54.19 54.89 55.46 58.11 58.25 57.86 57.04 57.41 57.57 57.75 58.24 58.41 57.87
43.84 43.21 46.46 47.64 46.22 43.23 39.62 40.63 41.96 39.45 37.62 42.00 42.71 45.34 46.56 47.17 50.09 49.19 47.95 46.16 46.08 40.91 49.10 46.04 43.74 49.05 50.01 51.67 52.70 54.78 56.09 56.41 56.22 57.85 57.65 57.41 57.18 58.26 58.18 57.96 57.07 57.37 56.93 56.73
47.47 44.22 42.94 42.39 41.14 35.84 36.66 35.93 38.99 39.71 43.41 43.16 42.34 42.57 45.78 47.64 50.41 47.99 48.23 43.96 43.42 48.72 45.17 43.69 47.30 49.59 50.71 51.91 53.67 54.73 56.18 56.70 56.70 56.50 57.12 57.61 57.96 58.52 58.45 57.92 58.28 57.67 55.46 55.83
42.83 41.91 36.08 37.62 36.52 38.19 40.97 41.96 42.72 45.65 44.40 43.45 44.01 44.44 45.33 46.15 46.93 47.50 43.40 45.64 47.20 41.96 39.82 41.48 48.39 50.34 51.26 52.86 54.36 54.50 53.80 54.77 55.50 55.83 56.55 56.92 57.05 57.02 57.09 56.77 56.72 56.23 55.51 55.04
42.18 42.35 35.35 37.63 42.02 43.67 44.29 45.31 44.31 44.68 45.67 44.37 44.81 45.36 46.81 45.93 45.28 45.98 44.80 42.71 40.56 42.89 43.20 47.54 50.85 50.77 52.20 53.99 54.61 54.43 53.55 52.81 52.41 53.47 54.84 55.30 56.29 56.14 55.33 55.79 55.65 54.82 53.96 53.58
42.72 42.53 41.05 43.64 41.00 42.24 42.82 43.62 43.67 45.90 45.69 47.08 47.41 44.71 44.66 43.60 45.14 42.69 40.92 40.30 39.43 44.99 48.71 50.73 52.32 52.01 53.00 54.31 54.68 53.05 53.04 53.14 53.54 54.18 54.72 55.77 56.11 55.74 55.38 54.76 54.25 53.74 53.34 53.01
42.34 42.06 45.22 43.97 43.69 42.89 44.63 44.50 45.41 47.29 47.43 45.70 45.83 42.96 41.48 44.85 43.60 42.56 46.28 44.82 47.67 49.01 50.28 51.60 53.72 54.07 54.28 54.64 54.76 53.61 52.39 52.77 54.37 55.29 56.09 56.20 56.25 56.12 54.37 52.98 53.25 53.38 53.33 53.67
MSLP
1022.18 1021.83 1021.53 1021.22 1020.68 1019.70 1018.67 1018.31 1016.66 1015.28 1015.37 1014.67 1013.91 1012.31 1011.42 1010.65 1009.48 1009.23 1008.73 1008.29 1007.75 1007.19 1006.63 1005.89 1005.07 1004.60 1004.37 1004.53 1004.44 1004.56 1004.77 1004.27 1003.71 1003.41 1003.75 1003.84 1003.71 1003.97 1004.40 1004.59 1005.19 1004.96 1004.15 1002.97
1021.97 1021.74 1021.47 1021.08 1020.78 1020.39 1020.18 1018.66 1016.90 1015.27 1015.02 1013.93 1013.05 1012.15 1011.16 1010.35 1009.52 1008.98 1008.64 1008.12 1007.73 1007.24 1006.74 1006.42 1005.49 1005.02 1004.79 1004.68 1004.66 1004.71 1004.88 1004.71 1004.02 1003.71 1004.04 1004.09 1003.65 1003.89 1004.15 1004.48 1004.45 1004.25 1003.57 1002.78
1021.70 1021.57 1021.31 1021.09 1020.84 1020.45 1020.25 1019.14 1016.91 1015.05 1014.56 1014.02 1012.89 1011.73 1010.87 1010.14 1009.44 1008.88 1008.53 1007.93 1007.70 1007.50 1006.79 1006.51 1005.85 1005.24 1004.94 1004.92 1005.04 1005.16 1004.99 1005.10 1004.24 1003.62 1003.41 1003.39 1003.36 1003.50 1003.95 1003.92 1003.69 1003.81 1003.29 1002.87
1021.37 1021.36 1021.23 1020.97 1020.74 1020.37 1020.09 1018.98 1016.74 1015.70 1014.27 1013.46 1012.69 1011.93 1011.04 1010.23 1009.63 1008.75 1008.33 1007.86 1007.40 1007.06 1006.80 1006.30 1005.99 1005.59 1005.12 1005.13 1005.42 1005.50 1005.49 1005.14 1004.87 1004.26 1004.03 1003.76 1003.31 1003.23 1003.61 1003.81 1003.67 1003.18 1003.16 1003.46
1021.14 1021.10 1021.06 1020.91 1020.66 1020.29 1019.88 1018.81 1017.51 1015.97 1014.52 1013.56 1012.63 1011.77 1010.74 1009.98 1009.26 1008.91 1008.01 1007.82 1007.04 1006.97 1006.58 1005.94 1005.71 1005.64 1005.54 1005.41 1005.48 1005.68 1005.95 1005.62 1005.29 1004.44 1004.32 1004.06 1003.65 1003.79 1004.09 1004.31 1004.38 1004.50 1004.63 1004.60
1020.88 1020.91 1020.89 1020.68 1020.57 1020.09 1019.74 1019.02 1018.17 1017.10 1014.73 1013.53 1012.66 1011.44 1010.71 1009.93 1009.68 1008.26 1007.67 1007.46 1007.29 1006.74 1006.21 1006.32 1006.09 1006.05 1005.98 1006.01 1006.16 1006.24 1006.33 1006.06 1005.77 1005.01 1005.02 1004.50 1004.47 1004.68 1004.60 1004.91 1005.54 1005.87 1005.70 1006.26
1020.54 1020.64 1020.61 1020.55 1020.56 1020.59 1020.62 1020.04 1019.30 1017.54 1015.05 1013.95 1012.55 1011.45 1010.89 1010.01 1009.64 1008.95 1007.91 1007.70 1007.38 1007.33 1006.78 1006.71 1006.47 1006.29 1006.29 1006.41 1006.84 1007.03 1007.00 1006.77 1006.55 1005.88 1005.77 1005.47 1005.81 1006.09 1005.84 1006.23 1007.20 1007.53 1007.40 1007.56
1020.17 1020.34 1020.36 1020.49 1020.56 1020.64 1020.57 1020.28 1019.70 1018.33 1016.13 1014.32 1012.61 1011.84 1010.97 1010.32 1009.74 1009.35 1008.62 1008.34 1008.26 1007.80 1007.12 1007.04 1006.97 1006.85 1006.67 1006.96 1007.47 1007.66 1007.82 1007.57 1007.12 1006.76 1006.40 1006.47 1006.66 1007.38 1007.77 1007.77 1008.36 1008.69 1008.62 1008.27
1019.82 1020.04 1020.20 1020.26 1020.37 1020.36 1020.42 1020.24 1020.00 1019.03 1017.39 1014.45 1013.65 1012.49 1011.70 1010.98 1010.34 1009.42 1008.91 1008.89 1008.50 1008.14 1007.95 1007.69 1007.68 1007.52 1007.54 1007.58 1008.02 1008.38 1008.29 1008.20 1007.83 1007.86 1007.15 1007.00 1007.96 1008.64 1009.18 1009.28 1008.97 1009.38 1009.47 1009.04
1019.44 1019.66 1019.95 1020.06 1020.14 1020.16 1020.24 1019.86 1019.97 1019.14 1017.68 1014.88 1014.07 1013.03 1012.43 1011.86 1011.28 1010.75 1010.32 1009.92 1009.32 1008.79 1008.59 1008.51 1008.52 1008.33 1008.62 1008.53 1008.67 1008.81 1008.64 1008.59 1008.22 1008.10 1008.08 1008.48 1009.03 1009.53 1009.73 1009.97 1010.25 1010.05 1010.18 1010.10
1019.11 1019.38 1019.65 1019.80 1019.92 1019.91 1019.99 1019.63 1019.66 1019.14 1017.97 1015.54 1014.42 1013.62 1013.08 1012.41 1011.99 1011.47 1010.98 1010.83 1010.09 1009.65 1009.47 1009.44 1009.49 1009.36 1009.55 1009.54 1009.89 1009.81 1009.52 1009.39 1009.08 1009.23 1009.04 1009.46 1010.09 1010.11 1010.68 1011.14 1010.77 1010.91 1010.74 1010.88
1018.70 1019.06 1019.38 1019.59 1019.80 1019.79 1019.90 1019.67 1019.37 1019.41 1018.67 1015.95 1014.77 1013.68 1013.06 1012.74 1012.33 1012.34 1011.71 1011.47 1011.12 1010.85 1010.30 1010.41 1010.18 1009.97 1010.16 1010.18 1010.04 1010.55 1010.55 1010.46 1010.21 1010.40 1010.18 1010.46 1010.81 1011.17 1011.72 1012.02 1011.92 1011.49 1011.39 1011.06
1018.40 1018.83 1019.09 1019.34 1019.62 1019.72 1019.80 1019.78 1019.56 1019.08 1018.00 1015.61 1014.18 1012.59 1012.34 1012.30 1012.21 1012.02 1011.92 1011.76 1011.60 1011.35 1011.34 1010.73 1010.54 1010.30 1010.37 1010.13 1010.21 1010.42 1010.82 1011.12 1010.76 1010.80 1010.67 1010.73 1010.94 1011.41 1011.94 1012.17 1012.19 1011.94 1011.64 1011.22
1018.06 1018.48 1018.84 1019.07 1019.32 1019.48 1019.63 1019.74 1019.41 1019.30 1018.28 1016.50 1013.29 1012.25 1012.00 1011.78 1011.88 1011.91 1011.77 1011.67 1011.91 1011.81 1011.57 1011.00 1010.73 1010.49 1010.82 1010.52 1010.50 1010.43 1010.74 1011.04 1010.80 1010.74 1010.79 1011.01 1011.27 1011.54 1011.86 1012.09 1012.14 1011.86 1011.52 1011.19
1017.79 1018.21 1018.57 1018.86 1019.12 1019.25 1019.30 1019.34 1018.85 1018.93 1018.80 1016.70 1013.95 1012.51 1011.81 1011.54 1011.61 1011.49 1011.61 1011.66 1011.64 1011.55 1011.40 1011.05 1010.82 1011.03 1011.09 1010.98 1010.64 1010.56 1010.80 1010.76 1010.63 1010.59 1011.04 1011.19 1011.34 1011.78 1011.90 1011.94 1011.85 1011.68 1011.39 1010.99
1017.55 1018.04 1018.42 1018.70 1018.94 1019.05 1019.03 1018.69 1018.62 1018.88 1018.62 1017.40 1014.74 1012.78 1011.95 1011.55 1011.52 1011.52 1011.61 1011.64 1011.64 1011.51 1011.15 1011.13 1011.26 1011.53 1011.37 1010.71 1010.31 1010.50 1010.81 1010.97 1010.95 1011.19 1011.49 1011.54 1011.65 1011.78 1011.78 1011.84 1011.71 1011.54 1011.37 1011.18
1017.37 1017.91 1018.31 1018.60 1018.72 1018.75 1018.54 1018.44 1018.45 1018.60 1018.66 1017.39 1014.96 1012.81 1011.95 1011.78 1011.65 1011.75 1011.79 1011.95 1011.81 1011.69 1011.56 1011.40 1011.26 1011.49 1011.25 1010.92 1010.56 1010.58 1010.77 1011.09 1011.34 1011.57 1011.69 1011.46 1011.76 1011.84 1011.98 1011.90 1011.62 1011.54 1011.39 1011.30
1017.27 1017.81 1018.20 1018.41 1018.47 1018.42 1017.90 1017.24 1017.73 1018.23 1018.05 1017.21 1015.21 1012.83 1011.99 1011.70 1011.38 1011.64 1012.12 1011.71 1011.73 1011.86 1011.79 1011.90 1011.46 1011.80 1011.63 1011.16 1011.55 1011.47 1011.47 1011.52 1011.56 1011.47 1011.66 1011.70 1011.87 1011.91 1011.66 1011.66 1011.48 1011.29 1011.19 1011.17
1017.37 1017.86 1018.13 1018.37 1018.37 1017.82 1017.43 1017.11 1017.03 1018.01 1018.05 1016.35 1014.85 1012.89 1011.56 1011.52 1011.54 1011.64 1011.78 1011.74 1011.42 1012.10 1011.61 1011.83 1012.00 1011.65 1011.57 1012.14 1012.33 1012.16 1012.10 1012.02 1011.76 1011.53 1011.46 1011.42 1011.46 1011.41 1011.43 1011.30 1011.16 1010.96 1011.06 1011.10
1017.57 1017.97 1018.13 1017.56 1017.16 1017.09 1017.53 1017.27 1017.46 1017.59 1016.76 1016.18 1014.20 1012.89 1011.58 1011.37 1011.41 1011.56 1011.60 1011.57 1011.46 1011.36 1012.03 1012.13 1011.91 1011.85 1012.45 1012.70 1012.80 1012.71 1012.38 1012.11 1012.05 1011.59 1011.18 1011.22 1011.23 1011.43 1011.52 1011.49 1011.37 1011.12 1011.19 1011.30
1017.63 1017.59 1017.21 1016.93 1016.94 1017.08 1016.95 1016.59 1016.38 1015.81 1015.20 1014.35 1012.90 1012.21 1011.36 1011.50 1011.11 1011.16 1011.69 1011.28 1011.42 1011.18 1011.88 1011.78 1011.92 1012.04 1012.69 1013.00 1012.84 1012.66 1012.17 1011.96 1011.78 1011.79 1011.73 1011.74 1011.62 1011.73 1011.71 1011.67 1011.67 1011.64 1011.71 1011.88
1016.59 1016.72 1016.96 1016.80 1016.46 1016.29 1016.23 1015.34 1014.82 1014.31 1013.22 1012.76 1012.14 1011.62 1011.63 1011.63 1011.49 1011.00 1011.54 1011.06 1011.34 1011.24 1012.02 1011.78 1011.85 1012.77 1013.11 1013.27 1013.10 1012.76 1012.35 1011.97 1011.90 1011.95 1011.88 1012.02 1011.91 1011.96 1012.00 1012.11 1012.34 1012.31 1012.37 1012.61
1016.56 1016.75 1016.45 1015.85 1015.82 1015.50 1014.73 1013.63 1013.09 1012.57 1011.86 1011.67 1011.64 1011.52 1011.36 1011.75 1011.37 1011.12 1011.06 1010.86 1011.16 1011.76 1011.70 1011.85 1012.45 1013.09 1013.46 1013.54 1013.39 1013.01 1012.71 1012.43 1012.34 1012.35 1012.41 1012.24 1012.24 1012.33 1012.27 1012.39 1012.54 1012.69 1012.57 1012.93
1015.89 1015.59 1015.50 1014.85 1014.05 1013.22 1012.29 1011.67 1011.18 1011.01 1011.00 1011.08 1011.00 1011.12 1011.08 1011.08 1010.86 1010.89 1010.77 1011.40 1011.36 1011.54 1011.78 1011.95 1012.77 1013.28 1013.71 1013.78 1013.66 1013.39 1013.26 1013.09 1012.84 1012.73 1012.65 1012.57 1012.65 1012.86 1012.90 1012.86 1012.96 1013.04 1013.24 1013.51
1015.28 1014.86 1014.14 1013.12 1012.11 1011.68 1011.36 1011.19 1011.12 1010.97 1010.94 1010.88 1010.86 1010.84 1010.73 1010.70 1010.76 1010.95 1011.13 1011.34 1011.22 1011.56 1011.79 1012.39 1013.05 1013.70 1013.93 1013.92 1013.99 1013.98 1014.00 1013.93 1013.70 1013.60 1013.11 1013.09 1013.14 1013.38 1013.57 1013.62 1013.77 1013.91 1014.02 1014.17
1015.26 1014.46 1013.10 1012.06 1011.74 1011.07 1010.93 1010.78 1010.58 1010.60 1010.59 1010.69 1010.40 1010.25 1010.46 1010.66 1010.53 1010.63 1010.66 1010.91 1011.15 1011.70 1012.22 1012.80 1013.46 1013.81 1013.98 1014.11 1014.34 1014.48 1014.50 1014.46 1014.27 1014.11 1013.76 1013.48 1013.36 1013.63 1013.94 1014.17 1014.24 1014.31 1014.39 1014.50
1014.21 1012.95 1012.16 1011.92 1011.46 1010.93 1010.40 1010.15 1010.03 1010.23 1010.32 1009.88 1009.84 1010.04 1010.62 1010.84 1010.61 1010.68 1011.04 1011.18 1011.69 1012.16 1012.56 1013.18 1013.50 1013.58 1013.79 1014.02 1014.25 1014.38 1014.44 1014.25 1014.18 1014.12 1013.94 1013.81 1013.80 1014.00 1014.23 1014.41 1014.68 1014.79 1014.91 1015.03
Wind_Speed
8 10 12 14 16 21 6 4 4 4 3 3 1 4 5 2 6 3 5 2 4 5 5 4 3 1 1 3 3 7 5 4 9 14 2 2 2 3 6 6 6 1 4 4
7 9 10 12 13 13 4 5 4 3 3 3 3 2 3 4 6 5 4 4 7 4 4 4 3 2 2 6 2 3 7 3 6 5 5 3 6 6 4 5 1 7 4 3
7 8 9 11 11 11 1 3 3 2 2 1 2 0 2 3 3 9 6 8 6 4 5 4 3 1 1 3 3 5 5 3 4 6 2 2 6 8 8 5 5 7 6 3
6 7 9 10 12 9 1 3 1 3 2 4 5 2 2 8 6 4 4 4 12 10 6 5 4 3 2 2 3 3 0 2 3 1 3 3 3 10 12 8 2 6 7 7
7 5 7 8 11 4 1 3 4 4 3 4 3 4 3 4 5 6 4 8 5 13 6 6 7 4 2 1 2 3 2 1 1 1 1 2 1 2 3 5 2 3 4 2
7 5 6 7 9 5 2 2 2 4 2 3 3 3 1 4 6 8 11 8 5 11 16 5 2 2 3 2 2 3 3 2 1 2 6 2 4 3 2 4 6 4 1 5
8 5 3 6 6 5 1 1 2 3 3 3 3 3 5 9 7 6 6 3 3 4 2 4 3 2 1 0 5 4 2 3 0 1 0 6 5 7 4 12 7 6 4 8
10 6 2 2 4 5 0 1 2 2 4 4 5 7 6 9 4 4 2 5 5 5 2 2 1 1 1 4 6 3 3 1 2 4 4 2 3 5 4 3 3 6 8 9
11 8 5 2 3 2 1 2 2 2 4 1 4 5 4 4 5 3 4 1 5 3 3 2 1 2 1 1 3 4 7 4 3 2 4 7 4 5 3 3 4 4 6 9
12 9 6 4 3 2 1 2 4 2 4 3 3 3 3 4 2 3 2 7 7 4 2 2 1 1 1 1 2 1 2 1 5 6 6 2 5 9 1 7 3 6 6 9
12 10 7 4 3 4 1 3 4 2 3 8 3 3 3 4 2 3 4 3 1 2 3 0 2 1 2 1 1 2 2 2 2 2 4 6 7 1 4 6 5 7 8 9
12 10 7 4 2 3 2 2 0 0 4 6 3 13 16 13 13 5 2 2 1 1 2 1 2 2 1 0 3 1 2 2 0 3 3 2 2 3 3 5 9 11 12 12
14 11 9 5 3 1 1 3 2 2 3 6 4 4 1 3 10 5 3 1 0 1 2 2 1 2 2 3 2 2 2 3 2 2 1 3 3 3 2 6 9 11 12 13
14 12 9 6 4 3 4 3 1 2 2 4 4 3 4 2 5 8 4 1 3 3 1 1 1 1 3 1 3 2 1 6 4 2 2 1 1 3 4 8 7 8 10 10
15 12 9 6 4 4 3 4 4 4 3 4 6 10 2 4 5 6 4 4 3 2 2 2 1 2 3 0 2 2 3 3 2 0 2 1 1 1 6 6 5 8 11 14
14 11 8 6 4 1 1 3 2 5 2 4 4 3 2 3 5 5 3 2 2 1 1 1 2 2 3 3 4 3 4 4 3 2 2 4 6 6 4 5 6 10 12 10
13 10 7 5 4 1 2 2 2 4 3 3 5 3 1 2 2 2 1 2 2 1 1 1 1 2 2 1 2 4 6 2 0 2 3 4 2 3 6 7 10 8 8 5
12 9 7 4 5 7 5 2 14 4 1 3 3 3 2 1 2 3 1 2 1 2 1 1 1 3 1 2 4 4 3 2 4 5 5 8 7 8 9 7 7 6 4 4
11 8 4 1 3 2 2 6 8 4 3 4 3 3 3 1 2 1 2 1 3 1 1 2 3 1 2 4 6 7 5 4 6 7 5 5 5 7 6 6 6 4 5 5
11 3 2 3 3 3 7 3 2 4 3 3 5 1 3 3 2 2 2 0 2 3 3 1 2 2 2 5 6 8 8 8 5 6 5 6 5 5 5 5 6 6 7 8
2 3 3 2 2 2 2 2 4 3 4 5 4 5 1 1 3 3 1 2 1 3 4 3 2 3 2 6 6 6 3 3 4 3 1 1 3 3 4 7 8 8 9 9
4 3 1 2 2 1 2 4 2 5 5 4 4 4 3 2 1 2 2 1 2 2 1 3 3 2 0 5 6 7 6 5 3 2 4 0 3 5 5 7 7 7 8 8
2 1 4 3 3 2 6 7 4 4 4 5 4 4 3 3 2 3 2 3 2 2 2 0 2 2 2 3 4 6 6 7 7 5 4 5 6 5 5 7 6 6 8 7
3 5 4 5 6 6 7 6 3 2 2 5 4 4 3 1 2 1 3 2 2 2 3 2 3 3 1 1 3 5 6 6 6 5 5 6 5 4 5 5 4 5 6 6
3 4 5 8 6 4 3 4 2 2 1 5 4 3 1 2 4 1 3 3 2 2 1 3 3 5 3 5 4 6 7 6 6 4 5 5 5 3 4 5 5 5 5 5
3 5 5 4 2 5 4 5 4 3 4 2 1 3 3 2 2 4 3 5 4 3 3 3 6 7 6 6 6 6 6 5 6 6 5 2 3 5 5 5 4 4 5 5
4 5 5 6 6 7 6 4 4 4 5 3 2 3 2 3 2 4 2 2 2 4 4 4 5 6 5 4 4 4 3 3 5 5 5 3 3 7 6 5 4 4 5 5
Wind_Direction
306 324 335 339 340 340 38 334 272 43 167 181 306 205 203 252 274 178 262 278 265 273 310 286 271 205 59 44 174 173 180 196 223 221 118 340 183 183 180 239 189 219 301 239
295 318 331 342 344 8 334 329 286 111 297 221 202 239 253 252 248 236 210 248 233 225 230 243 243 267 89 24 147 188 175 203 223 184 166 153 213 184 168 115 143 190 225 232
284 312 334 342 340 355 126 299 274 134 187 310 284 82 249 249 260 256 235 249 238 233 238 202 290 260 298 9 35 68 105 141 239 260 314 358 180 182 182 216 191 159 225 275
263 303 332 345 338 355 177 205 311 338 197 233 232 256 280 277 286 239 215 221 224 211 236 182 213 251 296 143 38 81 13 157 216 204 241 276 253 188 173 199 239 220 163 211
250 291 331 350 336 5 208 304 326 340 288 285 255 194 225 261 259 236 249 231 236 211 227 210 189 181 226 287 38 80 1 134 295 168 37 336 359 119 160 227 164 287 6 82
238 274 327 1 353 357 351 340 274 278 302 314 235 203 265 283 321 244 241 263 269 203 221 240 281 112 91 69 7 55 29 96 354 262 1 319 227 11 255 120 78 334 203 4
223 250 323 358 25 49 320 319 292 293 292 268 281 312 315 288 291 275 328 310 245 27 303 136 117 75 12 205 60 22 113 89 342 308 296 231 73 32 24 113 75 29 338 336
215 231 253 327 350 155 326 285 267 307 285 295 295 330 295 307 306 218 279 1 348 316 17 87 60 356 121 59 50 77 65 187 185 239 216 5 140 29 14 354 110 11 330 337
213 220 237 270 322 70 162 256 230 270 297 214 322 318 322 335 337 332 16 321 339 16 47 80 119 173 70 175 112 78 97 104 257 176 226 226 75 3 354 278 205 358 337 335
208 213 226 255 306 41 204 276 218 242 276 280 326 337 326 332 323 288 322 346 350 351 38 62 52 93 350 238 266 22 66 60 229 213 249 110 349 333 257 205 73 347 349 327
207 212 218 236 303 348 46 294 214 270 275 284 247 292 334 340 350 346 353 232 31 56 78 119 114 231 87 156 48 349 329 268 179 159 213 215 18 200 283 10 339 333 341 334
198 206 213 217 263 349 97 284 29 241 239 283 282 269 263 251 258 274 330 17 337 37 113 154 143 158 169 132 181 116 209 317 114 271 53 38 22 59 59 352 310 311 309 304
192 201 212 209 215 229 108 291 309 252 284 279 272 262 74 229 228 223 293 190 256 170 342 121 95 186 207 176 141 138 150 164 180 227 133 281 278 205 282 313 306 313 307 300
191 197 204 203 206 219 178 271 146 276 297 284 288 323 297 285 193 200 225 175 97 86 244 147 186 214 223 136 80 269 63 171 157 237 232 286 121 225 298 319 322 339 340 332
187 191 200 196 207 241 229 235 229 248 277 304 294 307 282 290 193 182 155 171 155 185 194 193 149 118 171 263 117 226 184 142 228 85 131 273 321 222 308 304 338 339 337 335
182 188 188 188 201 323 246 273 152 205 216 278 289 349 293 22 147 140 125 85 86 48 276 93 119 70 267 185 191 144 187 205 226 19 47 275 307 310 307 297 312 333 331 342
171 174 184 186 198 203 199 310 22 152 179 257 288 287 119 323 130 76 104 48 70 336 109 174 146 138 272 191 183 158 200 218 216 227 268 273 170 351 326 298 302 312 323 340
158 164 172 199 260 258 276 252 192 153 269 256 273 268 239 53 171 173 351 160 170 46 66 159 92 150 267 217 50 345 305 293 273 259 242 287 298 283 289 301 296 298 355 2
143 151 128 175 224 213 320 10 142 171 294 290 238 250 161 155 102 71 146 293 176 59 157 90 255 146 206 38 335 312 313 299 322 333 311 301 300 315 324 335 351 347 42 18
123 105 192 207 203 156 137 250 149 182 201 229 254 242 196 213 134 109 190 10 120 173 81 185 255 134 27 6 330 298 288 257 277 294 337 348 26 52 38 26 29 50 70 65
119 172 221 63 148 157 199 241 219 168 224 202 238 221 170 170 174 144 272 145 131 188 110 265 170 167 60 0 8 359 9 198 215 218 336 54 82 76 78 94 77 74 70 67
162 143 95 203 189 140 238 223 196 215 236 191 198 177 207 149 211 161 169 126 182 139 98 223 190 131 321 1 18 22 29 46 93 146 171 117 82 116 97 82 77 79 88 77
113 189 189 191 156 202 217 198 201 223 202 183 179 158 169 159 196 91 180 157 119 153 204 217 82 168 260 14 18 49 50 72 84 83 75 102 98 121 117 114 109 101 77 70
180 186 157 214 194 227 200 215 201 218 208 166 161 118 196 143 120 126 140 78 177 146 214 168 157 186 100 53 53 71 47 42 67 81 88 89 97 110 104 88 76 84 74 55
216 175 218 211 238 263 248 250 263 189 182 156 140 114 188 90 116 55 123 149 194 223 160 143 150 154 133 91 74 59 35 15 16 360 71 86 104 121 98 82 80 77 82 76
239 232 252 222 248 242 227 219 242 170 158 175 215 128 104 100 134 164 168 163 197 145 155 139 153 165 150 112 82 80 50 21 349 340 350 27 131 150 125 109 86 73 70 77
228 232 231 256 279 265 255 202 204 148 172 193 172 99 88 128 136 153 185 173 102 140 142 151 172 163 154 141 142 126 141 253 284 315 332 314 142 141 146 142 125 94 86 95